This is the latest recevied weather packets stored in our database for station/object N0OQA. If no packets are shown the sender has not sent any weather packets the latest 10 day(s).
| Time | Temp. | Humidity | Pressure | Rain* | Wind** | Luminosity | Snow |
|---|---|---|---|---|---|---|---|
| 1788640525 | 27.78° C | 62% | 1018.8 hPa | 0 mm | - | - | - |
| 1788640224 | 27.78° C | 62% | 1018.9 hPa | 0 mm | - | - | - |
| 1788639623 | 27.78° C | 64% | 1019.3 hPa | 0 mm | - | - | - |
| 1788639323 | 26.67° C | 64% | 1019.4 hPa | 0 mm | - | - | - |
| 1788638722 | 27.22° C | 66% | 1019.4 hPa | 0 mm | - | - | - |
| 1788638422 | 26.67° C | 65% | 1019.7 hPa | 0 mm | - | - | - |
| 1788638122 | 26.67° C | 66% | 1019.6 hPa | 0 mm | - | - | - |
| 1788637821 | 26.67° C | 66% | 1019.7 hPa | 0 mm | - | - | - |
| 1788636920 | 26.67° C | 66% | 1019.9 hPa | 0 mm | - | - | - |
| 1788636319 | 26.67° C | 67% | 1019.9 hPa | 0 mm | - | - | - |
| 1788636019 | 26.11° C | 68% | 1019.9 hPa | 0 mm | - | - | - |
| 1788634818 | 25.56° C | 71% | 1019.9 hPa | 0 mm | - | - | - |
| 1788633916 | 25.56° C | 72% | 1020.3 hPa | 0 mm | - | - | - |
| 1788633315 | 25.56° C | 73% | 1020.2 hPa | 0 mm | - | - | - |
| 1788632414 | 25° C | 75% | 1020.2 hPa | 0 mm | - | - | - |
| 1788632114 | 25° C | 75% | 1020.1 hPa | 0 mm | - | - | - |
| 1788630612 | 24.44° C | 79% | 1020.4 hPa | 0 mm | - | - | - |
| 1788629710 | 23.89° C | 83% | 1020.6 hPa | 0 mm | - | - | - |
| 1788629410 | 23.89° C | 83% | 1020.5 hPa | 0 mm | - | - | - |
| 1788629110 | 23.89° C | 83% | 1020.5 hPa | 0 mm | - | - | - |
| 1788627608 | 22.78° C | 89% | 1020.5 hPa | 0 mm | - | - | - |
| 1788627308 | 22.78° C | 89% | 1020.5 hPa | 0 mm | - | - | - |
| 1788626708 | 22.22° C | 91% | 1020.5 hPa | 0 mm | - | - | - |
| 1788626399 | 22.22° C | 93% | 1020.3 hPa | 0 mm | - | - | - |
| 1788625498 | 21.11° C | 96% | 1020.4 hPa | 0 mm | - | - | - |
* Rain since midnight (hover to see other rain measurements)
** Current wind speed in m/s (hover to see current wind gust speed)